This demonstration page uses our WeatherBlox Daily Observations layout. Learn more.

Left ArrowRight Arrow

Hourly Observations for September 26, 2019

Temp ( °F °C ) Dew Point ( °F °C ) Humidity (%) Winds ( mph kmh ) Pressure ( in mb ) Visibility ( mi km ) Precip ( " mm )
12:54 am 00:54 Mostly Clear 53 11.7 47 8.3 80 80 Calm 30.02 1017 10 16 0.00 0.00
1:54 am 01:54 Partly Cloudy 52 11.1 47 8.3 83 83 NNE 3 6 30.02 1017 10 16 0.00 0.00
2:54 am 02:54 Mostly Clear 52 11.1 48 8.9 86 86 Calm 30.02 1017 10 16 0.00 0.00
3:54 am 03:54 Clear 53 11.7 48 8.9 83 83 WSW 3 6 30.03 1017 10 16 0.00 0.00
4:54 am 04:54 Clear 52 11.1 48 8.9 86 86 Calm 30.04 1017 10 16 0.00 0.00
5:54 am 05:54 Clear 50 10 47 8.3 89 89 SSW 3 6 30.06 1018 10 16 0.00 0.00
6:54 am 06:54 Clear 51 10.6 46 7.8 83 83 Calm 30.06 1018 10 16 0.00 0.00
7:54 am 07:54 Mostly Cloudy 50 10 46 7.8 86 86 Calm 30.07 1018 10 16 0.00 0.00
8:54 am 08:54 Cloudy 54 12.2 49 9.4 83 83 Calm 30.07 1018 10 16 0.00 0.00
9:54 am 09:54 Cloudy 58 14.4 52 11.1 81 81 SSE 5 7 30.03 1017 10 16 0.00 0.00
10:54 am 10:54 Mostly Cloudy 65 18.3 48 8.9 54 54 S 7 11 30.03 1017 10 16 0.00 0.00
11:54 am 11:54 Mostly Cloudy 70 21.1 44 6.7 39 39 SSE 8 13 30.00 1016 10 16 0.00 0.00
12:54 pm 12:54 Mostly Cloudy 71 21.7 40 4.4 32 32 SSW 13 20 29.96 1015 10 16 0.00 0.00
1:54 pm 13:54 Partly Cloudy 73 22.8 45 7.2 37 37 S 13 20 29.91 1013 10 16 0.00 0.00
2:54 pm 14:54 Cloudy 72 22.2 45 7.2 38 38 S 10 17 29.87 1012 10 16 0.00 0.00
3:54 pm 15:54 Sunny 77 25 47 8.3 35 35 S 17 28 29.81 1010 10 16 0.00 0.00
4:54 pm 16:54 Sunny 77 25 48 8.9 36 36 S 15 24 29.78 1008 10 16 0.00 0.00
5:54 pm 17:54 Sunny 75 23.9 49 9.4 40 40 S 22 35 29.75 1008 10 16 0.00 0.00
6:54 pm 18:54 Partly Cloudy 71 21.7 51 10.6 49 49 S 17 28 29.73 1007 10 16 0.00 0.00
7:54 pm 19:54 Cloudy 71 21.7 51 10.6 49 49 S 13 20 29.72 1006 10 16 0.00 0.00
8:54 pm 20:54 Cloudy 70 21.1 53 11.7 55 55 S 14 22 29.71 1006 10 16 0.00 0.00
9:54 pm 21:54 Cloudy 70 21.1 54 12.2 57 57 S 15 24 29.70 1006 10 16 0.00 0.00
10:54 pm 22:54 Cloudy 69 20.6 55 12.8 61 61 S 14 22 29.67 1005 10 16 0.00 0.00
11:54 pm 23:54 Partly Cloudy 68 20 58 14.4 70 70 S 13 20 29.65 1004 10 16 0.00 0.00

Powered by AerisWeather